Date,TemperatureHighF,TemperatureAvgF,TemperatureLowF,DewpointHighF,DewpointAvgF,DewpointLowF,HumidityHigh,HumidityAvg,HumidityLow,PressureMaxIn,PressureMinIn,WindSpeedMaxMPH,WindSpeedAvgMPH,GustSpeedMaxMPH,PrecipitationSumIn
2013-5-31,91,73,54,53,45,39,58,39,24,0.00,40.00,0,-999,0,0.00
2013-6-1,96,79,60,54,45,38,45,31,20,0.00,40.00,0,-999,0,0.00
2013-6-2,90,74,63,54,46,41,47,37,28,0.00,40.00,0,-999,0,0.00
2013-6-3,82,70,59,54,47,42,55,45,34,0.00,40.00,0,-904,0,0.00
2013-6-4,76,65,57,54,49,44,69,56,43,0.00,40.00,0,-4,0,0.00
2013-6-5,78,65,57,54,49,46,71,58,42,0.00,40.00,0,-13,0,0.00
2013-6-6,84,64,56,58,51,46,73,62,39,0.00,40.00,0,-293,0,0.00
2013-6-7,98,76,58,64,53,47,70,48,28,0.00,40.00,0,-999,0,0.00
2013-6-8,106,84,69,61,52,47,46,35,21,0.00,40.00,0,-999,0,0.00
2013-6-9,80,70,62,56,51,48,62,51,42,0.00,40.00,0,-999,0,0.00
2013-6-10,76,68,60,54,51,47,69,54,45,0.00,40.00,0,-999,0,0.00
2013-6-11,83,69,59,58,51,47,68,54,40,0.00,40.00,0,-999,0,0.00
2013-6-12,83,69,58,53,46,41,61,45,30,0.00,40.00,0,-999,0,0.00
2013-6-13,85,69,54,52,45,41,62,44,30,0.00,40.00,0,-999,0,0.00
2013-6-14,90,74,57,50,42,37,50,34,21,0.00,40.00,0,-999,0,0.00
2013-6-15,80,67,58,51,44,35,58,44,33,0.00,40.00,0,-999,0,0.00
2013-6-16,84,69,55,54,48,43,68,49,31,0.00,40.00,0,-999,0,0.00
2013-6-17,80,68,58,54,49,44,66,52,39,0.00,40.00,0,-999,0,0.00
2013-6-18,76,66,59,52,49,46,67,55,41,0.00,40.00,0,-999,0,0.00
2013-6-19,79,67,56,52,47,43,68,50,34,0.00,40.00,0,-999,0,0.00
2013-6-20,83,68,55,54,46,40,60,45,31,0.00,40.00,0,-999,0,0.00
2013-6-21,87,71,56,54,46,42,61,43,29,0.00,40.00,0,-999,0,0.00
2013-6-22,91,73,57,54,46,40,53,39,22,0.00,40.00,0,-999,0,0.00
2013-6-23,71,65,60,58,53,46,71,65,51,0.00,40.00,0,-999,0,0.00
2013-6-24,69,65,61,60,58,54,80,76,71,0.00,40.00,0,-999,0,0.00
2013-6-25,79,68,64,65,60,57,79,74,61,0.00,40.00,0,-999,0,0.00
2013-6-26,88,76,66,69,61,55,79,62,43,0.00,40.00,0,-999,0,0.00
2013-6-27,95,79,64,65,58,52,70,51,33,0.00,40.00,0,-999,0,0.00
2013-6-28,102,86,67,63,54,49,55,37,22,0.00,40.00,0,-999,0,0.00
2013-6-29,104,88,70,58,52,46,43,30,19,0.00,40.00,0,-999,0,0.00
2013-6-30,99,85,70,58,51,46,44,32,21,0.00,40.00,0,-999,0,0.00
2013-7-1,100,85,68,60,52,47,49,34,22,0.00,40.00,0,-999,0,0.00
2013-7-2,102,86,75,60,53,47,42,33,25,0.00,40.00,0,-999,0,0.00
2013-7-3,100,84,69,61,53,47,53,37,24,0.00,40.00,0,-999,0,0.00
2013-7-4,101,86,76,60,53,44,43,32,24,0.00,40.00,0,-999,0,0.00
2013-7-5,78,69,60,53,47,40,60,47,31,0.00,40.00,0,-999,0,0.00
2013-7-6,84,69,59,56,50,46,69,52,37,0.00,40.00,0,-999,0,0.00
2013-7-7,88,72,58,58,50,45,65,47,30,0.00,40.00,0,-999,0,0.00
2013-7-8,91,74,59,58,50,45,66,46,28,0.00,40.00,0,-999,0,0.00
2013-7-9,99,81,63,72,51,43,77,39,18,0.00,40.00,0,-999,0,0.00
2013-7-10,91,75,62,58,49,41,54,40,29,0.00,40.00,0,-999,0,0.00
2013-7-11,82,67,59,56,48,42,63,51,40,0.00,40.00,0,-999,0,0.00
2013-7-12,84,70,58,58,49,41,68,49,34,0.00,40.00,0,-999,0,0.00
2013-7-13,90,75,59,57,46,39,52,37,27,0.00,40.00,0,-999,0,0.00
2013-7-14,86,72,60,55,45,37,50,38,30,0.00,40.00,0,-999,0,0.00
2013-7-15,78,66,58,54,48,42,63,52,42,0.00,40.00,0,-999,0,0.00
2013-7-16,74,66,60,54,50,47,67,58,47,0.00,40.00,0,-999,0,0.00
2013-7-17,82,73,61,60,54,47,70,52,42,0.00,40.00,0,-999,0,0.00
2013-7-18,90,72,59,61,51,44,70,49,28,0.00,40.00,0,-999,0,0.00
2013-7-19,90,74,60,59,50,43,61,44,30,0.00,40.00,0,-999,0,0.00
2013-7-20,89,73,59,60,51,44,64,48,33,0.00,40.00,0,-999,0,0.00
2013-7-21,89,74,61,59,51,45,62,45,33,0.00,40.00,0,-999,0,0.00
2013-7-22,88,75,62,60,53,46,60,47,37,0.00,40.00,0,-999,0,0.00
2013-7-23,89,77,68,60,52,45,55,42,31,0.00,40.00,0,-999,0,0.00
2013-7-24,93,79,66,58,48,43,52,36,22,0.00,40.00,0,-999,0,0.00
2013-7-25,87,76,66,54,47,40,47,36,28,0.00,40.00,0,-999,0,0.00
2013-7-26,87,73,60,57,49,43,58,44,32,0.00,40.00,0,-999,0,0.00
2013-7-27,84,71,60,60,52,46,67,52,40,0.00,40.00,0,-999,0,0.00
2013-7-28,82,71,60,59,52,46,69,51,42,0.00,40.00,0,-999,0,0.00
2013-7-29,81,68,58,57,51,47,68,56,43,0.00,40.00,0,-999,0,0.00
2013-7-30,84,69,59,60,52,46,70,56,41,0.00,40.00,0,-999,0,0.00
2013-7-31,81,68,58,58,50,46,70,55,40,0.00,40.00,0,-999,0,0.00
2013-8-1,77,67,58,55,50,47,68,55,42,0.00,40.00,0,-999,0,0.00
2013-8-2,84,69,56,58,50,44,69,52,35,0.00,40.00,0,-999,0,0.00
2013-8-3,83,69,59,59,51,45,68,54,40,0.00,40.00,0,-999,0,0.00
2013-8-4,80,66,59,58,51,46,70,58,43,0.00,40.00,0,-999,0,0.00
2013-8-5,80,66,59,60,52,46,72,61,45,0.00,40.00,0,-999,0,0.00
2013-8-6,76,65,58,59,52,47,73,64,51,0.00,40.00,0,-999,0,0.00
2013-8-7,76,67,60,58,53,51,74,63,49,0.00,40.00,0,-999,0,0.00
2013-8-8,79,67,61,61,54,49,74,64,50,0.00,40.00,0,-999,0,0.00
2013-8-9,75,65,59,58,53,50,73,65,53,0.00,40.00,0,-999,0,0.00
2013-8-10,79,67,60,62,55,51,76,66,51,0.00,40.00,0,-999,0,0.00
2013-8-11,82,68,60,63,55,50,78,64,45,0.00,40.00,0,-999,0,0.00
2013-8-12,85,71,58,62,53,45,72,54,35,0.00,40.00,0,-999,0,0.00
2013-8-13,94,75,59,60,49,43,59,42,27,0.00,40.00,0,-999,0,0.00
2013-8-14,87,72,60,55,49,42,58,44,30,0.00,40.00,0,-999,0,0.00
2013-8-15,87,74,65,64,58,52,69,57,43,0.00,40.00,0,-999,0,0.00
2013-8-16,90,76,65,66,57,48,73,55,34,0.00,40.00,0,-999,0,0.00
2013-8-17,83,71,64,59,53,49,62,54,43,0.00,40.00,0,-999,0,0.00
2013-8-18,95,78,62,65,56,50,66,49,29,0.00,40.00,0,-999,0,0.00
2013-8-19,99,82,70,63,53,44,50,37,27,0.00,40.00,0,-999,0,0.00
2013-8-20,89,76,66,60,52,46,57,44,33,0.00,40.00,0,-999,0,0.00
2013-8-21,82,69,61,58,51,46,65,53,41,0.00,40.00,0,-999,0,0.00
2013-8-22,79,68,61,58,52,48,69,58,46,0.00,40.00,0,-999,0,0.00
2013-8-23,78,67,61,58,53,49,70,60,46,0.00,40.00,0,-999,0,0.00
2013-8-24,83,70,60,61,55,50,73,60,45,0.00,40.00,0,-999,0,0.00
2013-8-25,86,72,66,67,59,54,75,63,48,0.00,40.00,0,-999,0,0.00
2013-8-26,82,71,64,62,56,51,72,60,45,0.00,40.00,0,-999,0,0.00
2013-8-27,87,72,59,61,53,48,68,54,37,0.00,40.00,0,-999,0,0.00
2013-8-28,86,73,63,64,57,52,70,59,43,0.00,40.00,0,-999,0,0.00
2013-8-29,86,76,64,66,60,56,75,60,46,0.00,40.00,0,-999,0,0.00
2013-8-30,91,80,68,58,55,52,64,44,33,0.00,40.00,0,-999,0,0.00
2013-8-31,85,74,64,59,52,49,62,48,34,0.00,40.00,0,-999,0,0.00
2013-9-1,86,73,64,59,55,51,66,54,37,0.00,40.00,0,-999,0,0.00
2013-9-2,84,74,67,64,59,56,71,61,45,0.00,40.00,0,-999,0,0.00
2013-9-3,82,72,63,61,55,52,73,58,40,0.00,40.00,0,-999,0,0.00
2013-9-4,82,72,64,60,55,52,70,57,43,0.00,40.00,0,-999,0,0.00
2013-9-5,82,72,65,60,54,52,68,56,40,0.00,40.00,0,-999,0,0.00
2013-9-6,89,75,58,58,51,42,68,46,28,0.00,40.00,0,-999,0,0.00
2013-9-7,96,80,64,54,45,40,44,30,21,0.00,40.00,0,-999,0,0.00
2013-9-8,96,80,66,56,47,39,44,32,25,0.00,40.00,0,-999,0,0.00
2013-9-9,96,80,66,56,47,41,44,32,21,0.00,40.00,0,-999,0,0.00
2013-9-10,83,73,64,57,50,42,60,46,33,0.00,40.00,0,-999,0,0.00
2013-9-11,78,69,63,57,54,51,66,59,48,0.00,40.00,0,-999,0,0.00
2013-9-12,82,70,64,63,57,53,72,64,49,0.00,40.00,0,-999,0,0.00
2013-9-13,82,68,61,62,55,51,76,65,47,0.00,40.00,0,-999,0,0.00
2013-9-14,71,64,60,59,54,51,78,72,64,0.00,40.00,0,-999,0,0.00
2013-9-15,80,68,60,62,56,51,76,65,49,0.00,40.00,0,-999,0,0.00
2013-9-16,83,70,64,64,57,52,77,63,45,0.00,40.00,0,-999,0,0.00
2013-9-17,78,69,62,58,53,49,71,58,45,0.00,40.00,0,-999,0,0.00
2013-9-18,85,70,57,55,48,41,67,47,31,0.00,40.00,0,-999,0,0.00
2013-9-19,89,73,57,52,44,38,50,36,24,0.00,40.00,0,-999,0,0.00
2013-9-20,75,67,60,55,49,37,63,52,34,0.00,40.00,0,-999,0,0.00
2013-9-21,71,65,60,57,54,51,72,66,56,0.00,40.00,0,-999,0,0.00
2013-9-22,76,65,56,58,52,48,78,64,48,0.00,40.00,0,-999,0,0.00
2013-9-23,82,69,57,59,53,47,72,58,40,0.00,40.00,0,-999,0,0.00
2013-9-24,77,68,61,58,52,46,69,58,44,0.00,40.00,0,-999,0,0.00
2013-9-25,73,64,56,49,45,41,62,50,41,0.00,40.00,0,-999,0,0.00
2013-9-26,76,63,51,47,41,38,63,46,31,0.00,40.00,0,-999,0,0.00
2013-9-27,77,65,52,46,39,33,53,40,28,0.00,40.00,0,-999,0,0.00
2013-9-28,84,67,53,46,38,31,48,35,22,0.00,40.00,0,-999,0,0.00
2013-9-29,77,68,58,55,50,44,63,55,45,0.00,40.00,0,-999,0,0.00
2013-9-30,77,69,64,60,56,53,70,62,52,0.00,40.00,0,-999,0,0.00
2013-10-1,75,66,55,53,49,44,68,55,43,0.00,40.00,0,-999,0,0.00
2013-10-2,78,65,54,52,45,41,64,50,36,0.00,40.00,0,-999,0,0.00
2013-10-3,74,64,52,45,38,31,61,41,25,0.00,40.00,0,-999,0,0.00
2013-10-4,77,70,62,36,31,27,27,24,21,0.00,40.00,0,-999,0,0.00
2013-10-5,82,70,56,39,31,23,29,24,20,0.00,40.00,0,-999,0,0.00
2013-10-6,84,69,53,40,31,23,34,25,20,0.00,40.00,0,-999,0,0.00
2013-10-7,85,70,57,42,33,27,35,26,20,0.00,40.00,0,-999,0,0.00
2013-10-8,78,65,54,44,36,28,45,34,28,0.00,40.00,0,-999,0,0.00
2013-10-9,72,62,52,45,40,34,57,45,36,0.00,40.00,0,-999,0,0.00
2013-10-10,75,63,52,44,39,33,50,42,32,0.00,40.00,0,-999,0,0.00
2013-10-11,73,57,51,50,39,35,58,50,40,0.00,40.00,0,-999,0,0.00
2013-10-12,74,60,48,49,41,33,59,49,38,0.00,40.00,0,-999,0,0.00
2013-10-13,74,62,50,49,41,34,65,49,34,0.00,40.00,0,-999,0,0.00
2013-10-14,77,64,50,45,37,31,53,39,29,0.00,40.00,0,-999,0,0.00
2013-10-15,77,65,51,42,33,27,43,31,24,0.00,40.00,0,-999,0,0.00
2013-10-16,82,67,52,43,33,26,38,29,23,0.00,40.00,0,-999,0,0.00
2013-10-17,81,67,52,44,33,26,38,29,22,0.00,40.00,0,-999,0,0.00
2013-10-18,82,67,52,43,33,24,36,28,22,0.00,40.00,0,-999,0,0.00
2013-10-19,82,68,53,46,36,28,40,31,24,0.00,40.00,0,-999,0,0.00
2013-10-20,83,67,53,46,36,29,41,33,25,0.00,40.00,0,-999,0,0.00
2013-10-21,79,65,52,47,40,32,52,41,31,0.00,40.00,0,-999,0,0.00
2013-10-22,80,65,51,51,42,34,60,45,33,0.00,40.00,0,-999,0,0.00
2013-10-23,78,62,53,52,43,37,64,51,41,0.00,40.00,0,-999,0,0.00
2013-10-24,62,57,54,49,45,42,70,65,58,0.00,40.00,0,-999,0,0.00
2013-10-25,76,62,52,54,47,42,73,60,44,0.00,40.00,0,-999,0,0.00
2013-10-26,78,64,50,52,44,37,64,49,35,0.00,40.00,0,-999,0,0.00
2013-10-27,63,57,52,47,42,35,68,57,42,0.00,40.00,0,-999,0,0.00
2013-10-28,66,58,51,48,44,41,69,60,47,0.00,40.00,0,-999,0,0.00
2013-10-29,65,59,53,48,44,39,67,59,49,0.00,40.00,0,-999,0,0.00
2013-10-30,68,57,46,48,41,36,67,56,46,0.00,40.00,0,-999,0,0.00
2013-10-31,71,60,47,47,40,34,61,49,38,0.00,40.00,0,-999,0,0.00
2013-11-1,73,61,48,46,38,32,53,44,35,0.00,40.00,0,-999,0,0.00
2013-11-2,71,59,49,68,45,31,92,61,43,0.00,40.00,0,-999,0,0.00
2013-11-3,66,56,47,45,39,31,72,54,36,0.00,40.00,0,-999,0,0.00
2013-11-4,68,57,43,40,33,27,53,41,33,0.00,40.00,0,-999,0,0.00
2013-11-5,72,61,51,40,32,26,37,33,29,0.00,40.00,0,-999,0,0.00
2013-11-6,69,60,49,39,32,25,40,35,32,0.00,40.00,0,-999,0,0.00
2013-11-7,74,61,52,42,34,29,42,37,31,0.00,40.00,0,-999,0,0.00
2013-11-8,75,61,49,46,38,30,49,43,35,0.00,40.00,0,-999,0,0.00
2013-11-9,73,61,49,48,40,33,56,46,36,0.00,40.00,0,-999,0,0.00
2013-11-10,70,58,48,48,40,32,57,50,43,0.00,40.00,0,-999,0,0.00
2013-11-11,67,58,50,50,43,36,70,59,51,0.00,40.00,0,-999,0,0.00
2013-11-12,72,63,56,50,46,36,63,54,40,0.00,40.00,0,-999,0,0.00
2013-11-13,76,61,49,49,41,34,57,48,38,0.00,40.00,0,-999,0,0.00
2013-11-14,69,57,51,54,44,36,69,61,51,0.00,40.00,0,-999,0,0.00
2013-11-15,67,55,46,48,40,33,69,58,44,0.00,40.00,0,-999,0,0.00
2013-11-16,64,54,46,45,40,33,67,58,47,0.00,40.00,0,-999,0,0.00
2013-11-17,66,56,50,50,43,38,73,62,51,0.00,40.00,0,-999,0,0.00
2013-11-18,60,53,46,46,41,35,69,64,58,0.00,40.00,0,-999,0,0.00
2013-11-19,62,56,51,52,47,41,80,72,66,0.00,40.00,0,-999,0,0.00
2013-11-20,62,58,55,56,53,50,86,84,80,0.00,40.00,0,-999,0,0.00
2013-11-21,59,55,52,50,41,30,87,62,38,0.00,40.00,0,-999,0,0.00
2013-11-22,67,58,50,34,29,24,38,33,27,0.00,40.00,0,-999,0,0.00
2013-11-23,64,54,45,38,31,25,48,42,36,0.00,40.00,0,-999,0,0.00
2013-11-24,65,52,42,42,34,26,55,49,40,0.00,40.00,0,-999,0,0.00
2013-11-25,63,52,41,44,36,27,60,53,47,0.00,40.00,0,-999,0,0.00
2013-11-26,62,52,44,44,37,32,65,57,48,0.00,40.00,0,-999,0,0.00
2013-11-27,63,54,46,47,40,34,68,61,55,0.00,40.00,0,-999,0,0.00
2013-11-28,67,55,46,48,40,35,70,58,46,0.00,40.00,0,-999,0,0.00
2013-11-29,68,56,44,46,39,32,63,53,43,0.00,40.00,0,-999,0,0.00
2013-11-30,66,55,45,46,38,32,61,53,46,0.00,40.00,0,-999,0,0.00
2013-12-1,70,56,45,48,39,32,63,53,43,0.00,40.00,0,-999,0,0.00
2013-12-2,64,54,44,47,40,30,72,59,51,0.00,40.00,0,-999,0,0.00
2013-12-3,55,52,44,48,37,25,76,58,47,0.00,40.00,0,-999,0,0.00
2013-12-4,52,44,36,29,22,14,49,42,37,0.00,40.00,0,-999,0,0.00
2013-12-5,50,40,29,26,18,10,45,40,36,0.00,40.00,0,-999,0,0.00
2013-12-6,52,46,32,36,24,12,64,44,39,0.00,40.00,0,-999,0,0.00
2013-12-7,50,45,37,37,29,21,66,53,43,0.00,40.00,0,-999,0,0.00
2013-12-8,46,39,33,27,21,16,57,49,42,0.00,40.00,0,-999,0,0.00
2013-12-9,49,40,33,25,19,14,48,42,38,0.00,40.00,0,-999,0,0.00
2013-12-10,52,41,30,31,21,14,52,45,39,0.00,40.00,0,-999,0,0.00
2013-12-11,54,43,33,31,23,16,51,44,38,0.00,40.00,0,-999,0,0.00
2013-12-12,58,45,34,36,26,18,52,46,40,0.00,40.00,0,-999,0,0.00
2013-12-13,59,47,36,38,28,21,56,47,39,0.00,40.00,0,-999,0,0.00
2013-12-14,60,47,37,37,27,20,52,45,37,0.00,40.00,0,-999,0,0.00
2013-12-15,62,48,36,38,28,20,52,46,38,0.00,40.00,0,-999,0,0.00
2013-12-16,66,52,40,40,31,24,52,44,35,0.00,40.00,0,-999,0,0.00
2013-12-17,62,52,42,40,32,25,53,48,43,0.00,40.00,0,-999,0,0.00
2013-12-18,61,52,45,41,36,30,64,54,46,0.00,40.00,0,-999,0,0.00
2013-12-19,58,50,42,39,33,23,67,52,38,0.00,40.00,0,-999,0,0.00
2013-12-20,61,50,40,31,23,17,40,34,29,0.00,40.00,0,-999,0,0.00
2013-12-21,63,55,41,36,31,17,49,41,32,0.00,40.00,0,-999,0,0.00
2013-12-22,64,51,40,40,31,25,56,46,37,0.00,40.00,0,-999,0,0.00
2013-12-23,63,51,41,40,31,24,53,46,38,0.00,40.00,0,-999,0,0.00
2013-12-24,68,54,42,43,33,26,54,45,35,0.00,40.00,0,-999,0,0.00
2013-12-25,64,52,42,42,32,25,51,45,38,0.00,40.00,0,-999,0,0.00
2013-12-26,66,52,39,42,31,24,54,45,36,0.00,40.00,0,-999,0,0.00
2013-12-27,58,49,39,39,31,23,53,49,44,0.00,40.00,0,-999,0,0.00
2013-12-28,65,50,37,39,30,24,59,46,35,0.00,40.00,0,-999,0,0.00
2013-12-29,67,56,47,36,28,22,38,34,31,0.00,40.00,0,-999,0,0.00
2013-12-30,64,52,39,37,28,18,45,40,35,0.00,40.00,0,-999,0,0.00
2014-1-1,50,49,48,26,25,24,40,39,39,0.00,40.00,0,-999,0,0.00
2014-1-2,65,52,40,38,29,21,47,41,35,0.00,40.00,0,-999,0,0.00